User: anonymous   Login
Location: CNYAC Observatory
(43.2150°N, 74.9500°W)
Time: 03:19:27
(UTC-04:00)
Language:

Meteor 1-22 Rocket - Orbit

View from above orbital plane
View from above orbital plane
View from above satellite
View from above satellite

Ground track
Ground track

The orbit data is extracted from the following two-line orbital elements,

1  8294U 75087B   17149.82042506 -.00000022 +00000-0 -19707-4 0  9993
2  8294 081.2104 040.4891 0107314 093.1217 268.2238 14.08559030142010
Epoch (UTC): 29 May 2017 19:41:24
Eccentricity: 0.0107314
inclination: 81.2104°
perigee height: 786 km
apogee height: 942 km
right ascension of ascending node: 40.4891°
argument of perigee: 93.1217°
revolutions per day: 14.08559030
mean anomaly at epoch: 268.2238°
orbit number at epoch: 14201

The dashed part of the orbit path shows where the satellite is in the earth's shadow,  

DLR